This is the latest recevied weather packets stored in our database for station/object KD9DOE. If no packets are shown the sender has not sent any weather packets the latest 10 day(s).
| Time | Temp. | Humidity | Pressure | Rain* | Wind** | Luminosity | Snow |
|---|---|---|---|---|---|---|---|
| 1777909452 | 23.89° C | 26% | 999.2 hPa | 0 mm | - | 620 W/m² | - |
| 1777909150 | 23.33° C | 27% | 999.3 hPa | 0 mm | - | 632 W/m² | - |
| 1777908848 | 23.33° C | 26% | 999.2 hPa | 0 mm | - | 601 W/m² | - |
| 1777908544 | 23.33° C | 28% | 999.4 hPa | 0 mm | - | 596 W/m² | - |
| 1777908241 | 22.78° C | 29% | 999.4 hPa | 0 mm | - | 585 W/m² | - |
| 1777907938 | 22.78° C | 29% | 999.6 hPa | 0 mm | - | 591 W/m² | - |
| 1777907633 | 22.78° C | 28% | 999.6 hPa | 0 mm | - | 584 W/m² | - |
| 1777907329 | 22.78° C | 29% | 999.6 hPa | 0 mm | - | 555 W/m² | - |
| 1777907025 | 22.22° C | 30% | 999.8 hPa | 0 mm | - | 565 W/m² | - |
| 1777906723 | 22.22° C | 30% | 999.9 hPa | 0 mm | - | 554 W/m² | - |
| 1777906419 | 21.67° C | 30% | 1000.1 hPa | 0 mm | - | 543 W/m² | - |
| 1777906116 | 21.67° C | 30% | 1000 hPa | 0 mm | - | 533 W/m² | - |
| 1777905812 | 21.67° C | 32% | 1000.1 hPa | 0 mm | - | 511 W/m² | - |
| 1777905510 | 21.11° C | 32% | 1000.1 hPa | 0 mm | - | 504 W/m² | - |
| 1777905207 | 21.11° C | 31% | 1000.2 hPa | 0 mm | - | 498 W/m² | - |
| 1777904904 | 20.56° C | 33% | 1000.2 hPa | 0 mm | - | 483 W/m² | - |
| 1777904601 | 20° C | 33% | 1000.5 hPa | 0 mm | - | 490 W/m² | - |
| 1777904298 | 20° C | 33% | 1000.4 hPa | 0 mm | - | 380 W/m² | - |
| 1777903995 | 19.44° C | 34% | 1000.5 hPa | 0 mm | - | 284 W/m² | - |
| 1777903692 | 18.89° C | 35% | 1000.6 hPa | 0 mm | - | 242 W/m² | - |
| 1777903388 | 18.89° C | 36% | 1000.5 hPa | 0 mm | - | 248 W/m² | - |
| 1777903085 | 18.33° C | 37% | 1000.7 hPa | 0 mm | - | 114 W/m² | - |
| 1777902781 | 17.78° C | 38% | 1000.7 hPa | 0 mm | - | 138 W/m² | - |
| 1777902479 | 17.78° C | 40% | 1000.8 hPa | 0 mm | - | 108 W/m² | - |
| 1777902175 | 17.22° C | 40% | 1000.8 hPa | 0 mm | - | 92 W/m² | - |
* Rain latest hour (hover to see other rain measurements)
** Current wind speed in m/s (hover to see current wind gust speed)